Home   Weather   Cornwall   Past weeks

Flag for Canada Past Weather in Cornwall, Ontario, Canada — Yesterday and Last 2 Weeks

Now
49 °F

Cool.


Feels Like: 46 °F
Forecast: 34 / 50 °F
Wind: 6 mph from Northwest

Location: St Anicet

Current Time: Apr 23, 2017 at 11:52:10 pm

Latest Report: Apr 23, 2017 at 11:00 pm


Visibility: N/A

Pressure: 30.09 "Hg

Humidity: 62%

Dew Point: 36 °F

Location of CornwallLocation

Past Weather in Cornwall — Graph

°F

Cornwall Temperature Yesterday

Maximum temperature yesterday: 49 °F (at 6:00 pm)
Minimum temperature yesterday: 39 °F (at 11:00 pm)
Average temperature yesterday: 46 °F

High & Low Weather Summary for the Past Weeks

 TemperatureHumidityPressure
High80 °F (Apr 10, 4:00 pm)100% (Apr 11, 8:00 am)30.50 "Hg (Apr 11, 8:00 am)
Low29 °F (Apr 15, 6:00 am)21% (Apr 10, 1:00 pm)29.57 "Hg (Apr 16, 5:00 pm)
Average49 °F72%30.05 "Hg
* Reported Apr 8 10:00 pm — Apr 23 10:00 pm, Cornwall, Weather by CustomWeather, © 2017

Note: Actual official high and low records may vary slightly from our data, if they occured in-between our weather recording intervals... More about our weather records

Advertising

Cornwall Weather History for the Previous 24 Hours

Scroll right to see more
 ConditionsComfort  
Time TempWeatherWind HumidityBarometerVisibility
10:00 pm
Sun, Apr 23
52 °FCool.5 mph61%30.06 "HgN/A
9:00 pm55 °FCool.9 mph51%30.03 "HgN/A
8:00 pm58 °FRefreshingly cool.10 mph37%29.95 "HgN/A
7:00 pm62 °FRefreshingly cool.17 mph31%29.93 "HgN/A
6:00 pm65 °FMild.14 mph32%29.93 "HgN/A
5:00 pm66 °FMild.16 mph29%29.92 "HgN/A
4:00 pm66 °FMild.15 mph32%29.93 "HgN/A
3:00 pm64 °FMild.16 mph35%29.97 "HgN/A
2:00 pm63 °FMild.13 mph35%30.01 "HgN/A
1:00 pm60 °FRefreshingly cool.13 mph42%30.03 "HgN/A
12:00 pm58 °FRefreshingly cool.10 mph51%30.05 "HgN/A
11:00 am54 °FCool.12 mph51%30.07 "HgN/A
10:00 am51 °FCool.9 mph64%30.08 "HgN/A
9:00 am45 °FCool.7 mph77%30.09 "HgN/A
8:00 am42 °FQuite cool.6 mph86%30.09 "HgN/A
7:00 am36 °FChilly.5 mph100%30.08 "HgN/A
6:00 am32 °FChilly.2 mph100%30.08 "HgN/A
5:00 am33 °FChilly.2 mph100%30.06 "HgN/A
4:00 am32 °FChilly.1 mph100%30.06 "HgN/A
3:00 am34 °FChilly.1 mph98%30.06 "HgN/A
2:00 am36 °FChilly.1 mph98%30.07 "HgN/A
1:00 am38 °FChilly.1 mph97%30.07 "HgN/A
12:00 am39 °FChilly.2 mph95%30.07 "HgN/A
11:00 pm
Sat, Apr 22
39 °FChilly.2 mph93%30.06 "HgN/A
Weather by CustomWeather, © 2017

See weather overviewHow to use our weather pages